Time,TemperatureF,DewpointF,PressureIn,WindDirection,WindDirectionDegrees,WindSpeedMPH,WindSpeedGustMPH,Humidity,HourlyPrecipIn,Conditions,Clouds,dailyrainin,SolarRadiationWatts/m^2,SoftwareType,DateUTC
2013-11-18 00:07:00,39.0,25.0,30.15,SSE,147,2.0,10.0,57,0.00,,,0.00,0,weatherlink.com 1.10,2013-11-18 07:07:00,
2013-11-18 00:22:00,38.6,25.0,30.15,ESE,107,0.0,6.0,59,0.00,,,0.00,0,weatherlink.com 1.10,2013-11-18 07:22:00,
2013-11-18 00:37:00,38.6,25.0,30.15,ESE,116,3.0,9.0,58,0.00,,,0.00,0,weatherlink.com 1.10,2013-11-18 07:37:00,
2013-11-18 00:52:00,38.2,26.0,30.14,ESE,114,4.0,7.0,61,0.00,,,0.00,0,weatherlink.com 1.10,2013-11-18 07:52:00,
2013-11-18 01:07:00,37.5,25.0,30.14,ESE,105,2.0,6.0,62,0.00,,,0.00,0,weatherlink.com 1.10,2013-11-18 08:07:00,
2013-11-18 01:22:00,37.5,25.0,30.14,East,92,6.0,7.0,61,0.00,,,0.00,0,weatherlink.com 1.10,2013-11-18 08:22:00,
2013-11-18 01:37:00,37.7,25.0,30.14,East,80,5.0,7.0,61,0.00,,,0.00,0,weatherlink.com 1.10,2013-11-18 08:37:00,
2013-11-18 01:52:00,37.7,25.0,30.14,ESE,108,8.0,9.0,60,0.00,,,0.00,0,weatherlink.com 1.10,2013-11-18 08:52:00,
2013-11-18 02:07:00,37.8,24.0,30.14,East,100,5.0,10.0,59,0.00,,,0.00,0,weatherlink.com 1.10,2013-11-18 09:07:00,
2013-11-18 02:22:00,37.8,24.0,30.14,ESE,121,3.0,10.0,58,0.00,,,0.00,0,weatherlink.com 1.10,2013-11-18 09:22:00,
2013-11-18 02:38:00,36.8,24.0,30.14,ESE,110,5.0,9.0,60,0.00,,,0.00,0,weatherlink.com 1.10,2013-11-18 09:38:00,
2013-11-18 02:53:00,37.2,24.0,30.15,East,88,8.0,11.0,59,0.00,,,0.00,0,weatherlink.com 1.10,2013-11-18 09:53:00,
2013-11-18 03:08:00,36.6,24.0,30.15,ESE,121,7.0,13.0,60,0.00,,,0.00,0,weatherlink.com 1.10,2013-11-18 10:08:00,
2013-11-18 03:23:00,36.9,24.0,30.15,ESE,112,11.0,11.0,59,0.00,,,0.00,0,weatherlink.com 1.10,2013-11-18 10:23:00,
2013-11-18 03:38:00,36.2,23.0,30.15,ESE,109,8.0,10.0,60,0.00,,,0.00,0,weatherlink.com 1.10,2013-11-18 10:38:00,
2013-11-18 03:53:00,36.5,23.0,30.15,East,96,11.0,13.0,59,0.00,,,0.00,0,weatherlink.com 1.10,2013-11-18 10:53:00,
2013-11-18 04:08:00,36.7,23.0,30.14,East,96,4.0,10.0,57,0.00,,,0.00,0,weatherlink.com 1.10,2013-11-18 11:08:00,
2013-11-18 04:23:00,37.2,23.0,30.14,SE,130,9.0,13.0,57,0.00,,,0.00,0,weatherlink.com 1.10,2013-11-18 11:23:00,
2013-11-18 04:38:00,36.8,23.0,30.14,East,85,7.0,11.0,57,0.00,,,0.00,0,weatherlink.com 1.10,2013-11-18 11:38:00,
2013-11-18 04:53:00,36.6,22.0,30.14,East,92,4.0,9.0,57,0.00,,,0.00,0,weatherlink.com 1.10,2013-11-18 11:53:00,
2013-11-18 05:08:00,37.7,22.0,30.14,ESE,110,1.0,13.0,54,0.00,,,0.00,0,weatherlink.com 1.10,2013-11-18 12:08:00,
2013-11-18 05:23:00,37.5,23.0,30.14,ESE,108,7.0,14.0,55,0.00,,,0.00,0,weatherlink.com 1.10,2013-11-18 12:23:00,
2013-11-18 05:38:00,37.5,23.0,30.14,ESE,104,4.0,11.0,55,0.00,,,0.00,0,weatherlink.com 1.10,2013-11-18 12:38:00,
2013-11-18 05:53:00,37.2,22.0,30.14,ESE,104,8.0,10.0,55,0.00,,,0.00,0,weatherlink.com 1.10,2013-11-18 12:53:00,
2013-11-18 06:08:00,36.8,22.0,30.14,East,97,9.0,13.0,55,0.00,,,0.00,0,weatherlink.com 1.10,2013-11-18 13:08:00,
2013-11-18 06:23:00,36.8,23.0,30.14,ENE,74,9.0,13.0,57,0.00,,,0.00,0,weatherlink.com 1.10,2013-11-18 13:23:00,
2013-11-18 06:38:00,36.8,23.0,30.14,East,92,7.0,17.0,57,0.00,,,0.00,0,weatherlink.com 1.10,2013-11-18 13:38:00,
2013-11-18 06:53:00,36.4,22.0,30.14,East,89,8.0,13.0,57,0.00,,,0.00,0,weatherlink.com 1.10,2013-11-18 13:53:00,
2013-11-18 07:08:00,36.1,22.0,30.15,East,92,7.0,11.0,58,0.00,,,0.00,0,weatherlink.com 1.10,2013-11-18 14:08:00,
2013-11-18 07:23:00,36.5,23.0,30.14,East,97,7.0,13.0,58,0.00,,,0.00,0,weatherlink.com 1.10,2013-11-18 14:23:00,
2013-11-18 07:38:00,36.0,23.0,30.15,East,96,8.0,12.0,60,0.00,,,0.00,0,weatherlink.com 1.10,2013-11-18 14:38:00,
2013-11-18 07:53:00,35.8,23.0,30.16,ESE,102,4.0,10.0,60,0.00,,,0.00,14,weatherlink.com 1.10,2013-11-18 14:53:00,
2013-11-18 08:08:00,34.3,23.0,30.16,ENE,58,0.0,3.0,64,0.00,,,0.00,25,weatherlink.com 1.10,2013-11-18 15:08:00,
2013-11-18 08:23:00,33.2,24.0,30.16,SE,127,0.0,0.0,68,0.00,,,0.00,39,weatherlink.com 1.10,2013-11-18 15:23:00,
2013-11-18 08:38:00,33.7,23.0,30.16,NE,48,0.0,5.0,66,0.00,,,0.00,56,weatherlink.com 1.10,2013-11-18 15:38:00,
2013-11-18 08:53:00,35.7,24.0,30.16,ESE,123,5.0,11.0,63,0.00,,,0.00,67,weatherlink.com 1.10,2013-11-18 15:53:00,
2013-11-18 09:08:00,34.9,25.0,30.16,NNW,337,0.0,5.0,66,0.00,,,0.00,155,weatherlink.com 1.10,2013-11-18 16:08:00,
2013-11-18 09:23:00,35.3,25.0,30.16,West,273,0.0,7.0,67,0.00,,,0.00,185,weatherlink.com 1.10,2013-11-18 16:23:00,
2013-11-18 09:38:00,35.5,25.0,30.16,ESE,119,4.0,4.0,67,0.00,,,0.00,137,weatherlink.com 1.10,2013-11-18 16:38:00,
2013-11-18 09:53:00,35.2,25.0,30.16,ESE,116,0.0,5.0,67,0.00,,,0.00,146,weatherlink.com 1.10,2013-11-18 16:53:00,
2013-11-18 10:08:00,38.3,25.0,30.15,ESE,119,8.0,11.0,60,0.00,,,0.00,151,weatherlink.com 1.10,2013-11-18 17:08:00,
2013-11-18 10:23:00,40.3,25.0,30.15,SE,134,5.0,10.0,55,0.00,,,0.00,278,weatherlink.com 1.10,2013-11-18 17:23:00,
2013-11-18 10:38:00,40.9,24.0,30.14,ESE,104,1.0,11.0,51,0.00,,,0.00,172,weatherlink.com 1.10,2013-11-18 17:38:00,
2013-11-18 10:53:00,41.0,25.0,30.14,ESE,110,4.0,10.0,53,0.00,,,0.00,167,weatherlink.com 1.10,2013-11-18 17:53:00,
2013-11-18 11:08:00,41.1,24.0,30.14,ESE,104,9.0,11.0,52,0.00,,,0.00,246,weatherlink.com 1.10,2013-11-18 18:08:00,
2013-11-18 11:23:00,42.3,24.0,30.13,East,87,2.0,10.0,49,0.00,,,0.00,288,weatherlink.com 1.10,2013-11-18 18:23:00,
2013-11-18 11:38:00,43.2,25.0,30.13,East,98,6.0,11.0,49,0.00,,,0.00,214,weatherlink.com 1.10,2013-11-18 18:38:00,
2013-11-18 11:53:00,43.5,26.0,30.12,ESE,106,2.0,10.0,50,0.00,,,0.00,265,weatherlink.com 1.10,2013-11-18 18:53:00,
2013-11-18 12:08:00,44.1,27.0,30.11,East,95,1.0,7.0,51,0.00,,,0.00,294,weatherlink.com 1.10,2013-11-18 19:08:00,
2013-11-18 12:24:00,45.1,29.0,30.10,SE,129,7.0,7.0,54,0.00,,,0.00,278,weatherlink.com 1.10,2013-11-18 19:24:00,
2013-11-18 12:39:00,45.5,27.0,30.09,ENE,78,4.0,8.0,49,0.00,,,0.00,250,weatherlink.com 1.10,2013-11-18 19:39:00,
2013-11-18 12:54:00,46.6,28.0,30.08,ESE,117,4.0,9.0,48,0.00,,,0.00,373,weatherlink.com 1.10,2013-11-18 19:54:00,
2013-11-18 13:09:00,46.7,29.0,30.08,WSW,255,0.0,4.0,50,0.00,,,0.00,287,weatherlink.com 1.10,2013-11-18 20:09:00,
2013-11-18 13:24:00,46.4,30.0,30.07,WNW,299,0.0,5.0,53,0.00,,,0.00,200,weatherlink.com 1.10,2013-11-18 20:24:00,
2013-11-18 13:39:00,46.4,29.0,30.06,WNW,287,0.0,4.0,51,0.00,,,0.00,218,weatherlink.com 1.10,2013-11-18 20:39:00,
2013-11-18 13:54:00,46.6,30.0,30.06,NW,318,0.0,5.0,53,0.00,,,0.00,199,weatherlink.com 1.10,2013-11-18 20:54:00,
2013-11-18 14:09:00,46.6,31.0,30.05,NW,306,1.0,3.0,55,0.00,,,0.00,257,weatherlink.com 1.10,2013-11-18 21:09:00,
2013-11-18 14:24:00,47.0,32.0,30.05,WNW,288,0.0,3.0,56,0.00,,,0.00,181,weatherlink.com 1.10,2013-11-18 21:24:00,
2013-11-18 14:39:00,46.8,30.0,30.03,WNW,285,0.0,5.0,53,0.00,,,0.00,165,weatherlink.com 1.10,2013-11-18 21:39:00,
2013-11-18 14:54:00,46.3,31.0,30.03,NW,313,3.0,6.0,56,0.00,,,0.00,135,weatherlink.com 1.10,2013-11-18 21:54:00,
2013-11-18 15:09:00,45.7,30.0,30.02,North,8,4.0,6.0,54,0.00,,,0.00,86,weatherlink.com 1.10,2013-11-18 22:09:00,
2013-11-18 15:24:00,45.4,31.0,30.02,North,360,0.0,0.0,58,0.00,,,0.00,93,weatherlink.com 1.10,2013-11-18 22:24:00,
2013-11-18 15:39:00,45.3,32.0,30.02,North,360,0.0,0.0,60,0.00,,,0.00,86,weatherlink.com 1.10,2013-11-18 22:39:00,
2013-11-18 15:54:00,44.2,32.0,30.02,NNE,14,3.0,4.0,63,0.00,,,0.00,65,weatherlink.com 1.10,2013-11-18 22:54:00,
2013-11-18 16:09:00,43.9,31.0,30.01,NE,48,3.0,6.0,61,0.00,,,0.00,49,weatherlink.com 1.10,2013-11-18 23:09:00,
2013-11-18 16:24:00,43.6,31.0,30.01,NNE,27,0.0,3.0,61,0.00,,,0.00,33,weatherlink.com 1.10,2013-11-18 23:24:00,
2013-11-18 16:39:00,42.3,30.0,30.00,NNE,14,0.0,3.0,63,0.00,,,0.00,19,weatherlink.com 1.10,2013-11-18 23:39:00,
2013-11-18 16:54:00,41.2,31.0,30.00,ENE,60,0.0,3.0,67,0.00,,,0.00,5,weatherlink.com 1.10,2013-11-18 23:54:00,
2013-11-18 17:09:00,40.6,30.0,30.00,ENE,60,0.0,0.0,67,0.00,,,0.00,0,weatherlink.com 1.10,2013-11-19 00:09:00,
2013-11-18 17:24:00,40.5,30.0,29.98,ENE,62,4.0,5.0,67,0.00,,,0.00,0,weatherlink.com 1.10,2013-11-19 00:24:00,
2013-11-18 17:39:00,40.9,29.0,29.98,NNE,31,0.0,1.0,64,0.00,,,0.00,0,weatherlink.com 1.10,2013-11-19 00:39:00,
2013-11-18 17:54:00,40.9,30.0,29.98,NNE,23,0.0,0.0,65,0.00,,,0.00,0,weatherlink.com 1.10,2013-11-19 00:54:00,
2013-11-18 18:09:00,40.7,30.0,29.97,NNE,23,0.0,0.0,65,0.00,,,0.00,0,weatherlink.com 1.10,2013-11-19 01:09:00,
2013-11-18 18:24:00,41.7,29.0,29.97,North,356,7.0,9.0,61,0.00,,,0.00,0,weatherlink.com 1.10,2013-11-19 01:24:00,
2013-11-18 18:39:00,42.7,29.0,29.97,NNE,12,4.0,8.0,58,0.00,,,0.00,0,weatherlink.com 1.10,2013-11-19 01:39:00,
2013-11-18 18:54:00,42.8,28.0,29.96,NNW,343,0.0,7.0,56,0.00,,,0.00,0,weatherlink.com 1.10,2013-11-19 01:54:00,
2013-11-18 19:09:00,41.0,29.0,29.96,NNW,331,0.0,0.0,63,0.00,,,0.00,0,weatherlink.com 1.10,2013-11-19 02:09:00,
2013-11-18 19:24:00,38.9,29.0,29.96,SE,137,1.0,5.0,69,0.00,,,0.00,0,weatherlink.com 1.10,2013-11-19 02:24:00,
2013-11-18 19:39:00,38.8,29.0,29.95,North,8,2.0,6.0,68,0.00,,,0.00,0,weatherlink.com 1.10,2013-11-19 02:39:00,
2013-11-18 19:54:00,38.1,29.0,29.95,SSE,150,0.0,5.0,70,0.00,,,0.00,0,weatherlink.com 1.10,2013-11-19 02:54:00,
2013-11-18 20:09:00,37.5,29.0,29.95,ENE,67,0.0,3.0,72,0.00,,,0.00,0,weatherlink.com 1.10,2013-11-19 03:09:00,
2013-11-18 20:24:00,37.3,30.0,29.95,ENE,69,0.0,5.0,74,0.00,,,0.00,0,weatherlink.com 1.10,2013-11-19 03:24:00,
2013-11-18 20:39:00,37.8,29.0,29.95,ENE,69,0.0,0.0,71,0.00,,,0.00,0,weatherlink.com 1.10,2013-11-19 03:39:00,
2013-11-18 20:54:00,37.1,29.0,29.95,East,83,0.0,3.0,73,0.00,,,0.00,0,weatherlink.com 1.10,2013-11-19 03:54:00,
2013-11-18 21:09:00,36.9,29.0,29.94,ENE,78,0.0,3.0,73,0.00,,,0.00,0,weatherlink.com 1.10,2013-11-19 04:09:00,
2013-11-18 21:24:00,36.9,29.0,29.94,ENE,78,0.0,0.0,73,0.00,,,0.00,0,weatherlink.com 1.10,2013-11-19 04:24:00,
2013-11-18 21:39:00,36.9,29.0,29.94,ENE,62,0.0,3.0,73,0.00,,,0.00,0,weatherlink.com 1.10,2013-11-19 04:39:00,
2013-11-18 21:54:00,36.7,29.0,29.93,East,89,0.0,2.0,74,0.00,,,0.00,0,weatherlink.com 1.10,2013-11-19 04:54:00,
2013-11-18 22:09:00,35.0,29.0,29.92,WNW,292,0.0,3.0,79,0.00,,,0.00,0,weatherlink.com 1.10,2013-11-19 05:09:00,
2013-11-18 22:24:00,35.5,29.0,29.91,WNW,292,0.0,1.0,78,0.00,,,0.00,0,weatherlink.com 1.10,2013-11-19 05:24:00,
2013-11-18 22:39:00,35.2,29.0,29.91,NE,48,2.0,4.0,79,0.00,,,0.00,0,weatherlink.com 1.10,2013-11-19 05:39:00,
2013-11-18 22:54:00,35.9,29.0,29.91,ENE,69,0.0,3.0,77,0.00,,,0.00,0,weatherlink.com 1.10,2013-11-19 05:54:00,
2013-11-18 23:09:00,35.4,30.0,29.91,ENE,61,0.0,2.0,81,0.00,,,0.00,0,weatherlink.com 1.10,2013-11-19 06:09:00,
2013-11-18 23:25:00,35.7,30.0,29.91,ENE,65,0.0,2.0,79,0.00,,,0.00,0,weatherlink.com 1.10,2013-11-19 06:25:00,
2013-11-18 23:40:00,36.1,30.0,29.91,West,268,0.0,4.0,78,0.00,,,0.00,0,weatherlink.com 1.10,2013-11-19 06:40:00,
2013-11-18 23:55:00,35.1,30.0,29.90,WSW,257,0.0,0.0,81,0.00,,,0.00,0,weatherlink.com 1.10,2013-11-19 06:55:00,